Time,TemperatureF,DewpointF,PressureIn,WindDirection,WindDirectionDegrees,WindSpeedMPH,WindSpeedGustMPH,Humidity,HourlyPrecipIn,Conditions,Clouds,dailyrainin,SoftwareType,DateUTC
2013-05-22 00:01:00,65.8,64.0,29.74,South,175,1.0,4.0,94,0.00,,,0.00,WUHU216DAVISVP2,2013-05-22 05:01:00,
2013-05-22 00:06:00,65.7,63.9,29.73,SW,218,4.0,4.0,94,0.00,,,0.00,WUHU216DAVISVP2,2013-05-22 05:06:00,
2013-05-22 00:11:00,65.7,63.9,29.73,South,171,0.0,4.0,94,0.00,,,0.00,WUHU216DAVISVP2,2013-05-22 05:11:00,
2013-05-22 00:16:00,65.6,63.8,29.74,South,173,3.0,5.0,94,0.00,,,0.00,WUHU216DAVISVP2,2013-05-22 05:16:00,
2013-05-22 00:21:00,65.6,63.8,29.74,South,172,3.0,5.0,94,0.00,,,0.00,WUHU216DAVISVP2,2013-05-22 05:21:00,
2013-05-22 00:26:00,65.6,63.8,29.74,SW,216,2.0,5.0,94,0.00,,,0.00,WUHU216DAVISVP2,2013-05-22 05:26:00,
2013-05-22 00:31:00,65.6,63.8,29.74,South,181,4.0,5.0,94,0.00,,,0.00,WUHU216DAVISVP2,2013-05-22 05:31:00,
2013-05-22 00:36:00,65.6,63.8,29.73,SE,146,5.0,8.0,94,0.00,,,0.00,WUHU216DAVISVP2,2013-05-22 05:36:00,
2013-05-22 00:41:00,65.7,63.9,29.74,SSE,168,6.0,8.0,94,0.00,,,0.00,WUHU216DAVISVP2,2013-05-22 05:41:00,
2013-05-22 00:46:00,65.8,64.0,29.74,SSW,205,4.0,9.0,94,0.00,,,0.00,WUHU216DAVISVP2,2013-05-22 05:46:00,
2013-05-22 00:51:00,65.8,64.0,29.73,SSE,167,5.0,10.0,94,0.00,,,0.00,WUHU216DAVISVP2,2013-05-22 05:51:00,
2013-05-22 00:56:00,65.9,63.8,29.74,SSE,158,6.0,11.0,93,0.00,,,0.00,WUHU216DAVISVP2,2013-05-22 05:56:00,
2013-05-22 01:01:00,65.9,63.8,29.73,SSW,208,5.0,11.0,93,0.00,,,0.00,WUHU216DAVISVP2,2013-05-22 06:01:00,
2013-05-22 01:06:00,65.9,63.8,29.74,South,172,6.0,10.0,93,0.00,,,0.00,WUHU216DAVISVP2,2013-05-22 06:06:00,
2013-05-22 01:11:00,65.9,63.8,29.74,South,191,8.0,10.0,93,0.00,,,0.00,WUHU216DAVISVP2,2013-05-22 06:11:00,
2013-05-22 01:16:00,65.9,63.8,29.74,SSW,212,6.0,10.0,93,0.00,,,0.00,WUHU216DAVISVP2,2013-05-22 06:16:00,
2013-05-22 01:21:00,65.9,63.8,29.74,SSW,196,7.0,10.0,93,0.00,,,0.00,WUHU216DAVISVP2,2013-05-22 06:21:00,
2013-05-22 01:26:00,65.9,63.8,29.74,South,183,5.0,10.0,93,0.00,,,0.00,WUHU216DAVISVP2,2013-05-22 06:26:00,
2013-05-22 01:31:00,65.9,63.8,29.75,SW,217,6.0,10.0,93,0.00,,,0.00,WUHU216DAVISVP2,2013-05-22 06:31:00,
2013-05-22 01:36:00,65.9,63.8,29.75,SW,234,4.0,9.0,93,0.00,,,0.00,WUHU216DAVISVP2,2013-05-22 06:36:00,
2013-05-22 01:41:00,65.8,63.7,29.75,SSW,212,4.0,9.0,93,0.00,,,0.00,WUHU216DAVISVP2,2013-05-22 06:41:00,
2013-05-22 01:46:00,65.8,63.7,29.75,SW,221,9.0,9.0,93,0.00,,,0.00,WUHU216DAVISVP2,2013-05-22 06:46:00,
2013-05-22 01:51:00,65.8,63.7,29.75,SW,224,3.0,9.0,93,0.00,,,0.00,WUHU216DAVISVP2,2013-05-22 06:51:00,
2013-05-22 01:56:00,65.7,63.6,29.75,SW,225,8.0,9.0,93,0.00,,,0.00,WUHU216DAVISVP2,2013-05-22 06:56:00,
2013-05-22 02:01:00,65.6,63.5,29.74,SSW,192,5.0,10.0,93,0.00,,,0.00,WUHU216DAVISVP2,2013-05-22 07:01:00,
2013-05-22 02:06:00,65.5,63.4,29.74,SW,215,4.0,10.0,93,0.00,,,0.00,WUHU216DAVISVP2,2013-05-22 07:06:00,
2013-05-22 02:11:00,65.4,63.3,29.74,SSW,211,5.0,13.0,93,0.00,,,0.00,WUHU216DAVISVP2,2013-05-22 07:11:00,
2013-05-22 02:16:00,65.4,63.3,29.74,SSW,213,5.0,13.0,93,0.00,,,0.00,WUHU216DAVISVP2,2013-05-22 07:16:00,
2013-05-22 02:21:00,65.4,63.3,29.74,SW,235,8.0,10.0,93,0.00,,,0.00,WUHU216DAVISVP2,2013-05-22 07:21:00,
2013-05-22 02:26:00,65.4,63.3,29.73,SW,220,8.0,13.0,93,0.00,,,0.00,WUHU216DAVISVP2,2013-05-22 07:26:00,
2013-05-22 02:31:00,65.4,63.0,29.73,SSW,204,6.0,13.0,92,0.00,,,0.00,WUHU216DAVISVP2,2013-05-22 07:31:00,
2013-05-22 02:36:00,65.4,63.0,29.73,SW,218,7.0,11.0,92,0.00,,,0.00,WUHU216DAVISVP2,2013-05-22 07:36:00,
2013-05-22 02:41:00,65.3,62.6,29.73,SSW,204,3.0,11.0,91,0.00,,,0.00,WUHU216DAVISVP2,2013-05-22 07:41:00,
2013-05-22 02:46:00,65.2,62.8,29.73,SW,215,3.0,10.0,92,0.00,,,0.00,WUHU216DAVISVP2,2013-05-22 07:46:00,
2013-05-22 02:51:00,65.1,62.7,29.73,SSW,207,3.0,7.0,92,0.00,,,0.00,WUHU216DAVISVP2,2013-05-22 07:51:00,
2013-05-22 02:56:00,65.1,62.7,29.73,SW,221,5.0,7.0,92,0.00,,,0.00,WUHU216DAVISVP2,2013-05-22 07:56:00,
2013-05-22 03:01:00,65.0,62.6,29.73,SSW,206,3.0,7.0,92,0.00,,,0.00,WUHU216DAVISVP2,2013-05-22 08:01:00,
2013-05-22 03:06:00,64.9,62.5,29.73,SSW,198,3.0,7.0,92,0.00,,,0.00,WUHU216DAVISVP2,2013-05-22 08:06:00,
2013-05-22 03:11:00,64.9,62.5,29.73,SW,218,6.0,7.0,92,0.00,,,0.00,WUHU216DAVISVP2,2013-05-22 08:11:00,
2013-05-22 03:16:00,64.9,62.5,29.72,South,184,3.0,7.0,92,0.00,,,0.00,WUHU216DAVISVP2,2013-05-22 08:16:00,
2013-05-22 03:21:00,64.9,62.5,29.72,SSE,158,2.0,6.0,92,0.00,,,0.00,WUHU216DAVISVP2,2013-05-22 08:21:00,
2013-05-22 03:26:00,64.9,62.5,29.72,SSW,208,4.0,4.0,92,0.00,,,0.00,WUHU216DAVISVP2,2013-05-22 08:26:00,
2013-05-22 03:31:00,64.9,62.5,29.71,South,188,2.0,4.0,92,0.00,,,0.00,WUHU216DAVISVP2,2013-05-22 08:31:00,
2013-05-22 03:36:00,64.8,62.4,29.71,SSW,194,3.0,3.0,92,0.00,,,0.00,WUHU216DAVISVP2,2013-05-22 08:36:00,
2013-05-22 03:41:00,64.9,62.5,29.72,South,176,2.0,5.0,92,0.00,,,0.00,WUHU216DAVISVP2,2013-05-22 08:41:00,
2013-05-22 03:46:00,64.9,62.5,29.72,SSW,202,3.0,5.0,92,0.00,,,0.00,WUHU216DAVISVP2,2013-05-22 08:46:00,
2013-05-22 03:51:00,64.9,62.5,29.72,SSW,204,2.0,5.0,92,0.00,,,0.00,WUHU216DAVISVP2,2013-05-22 08:51:00,
2013-05-22 03:56:00,64.9,62.5,29.72,South,170,2.0,5.0,92,0.00,,,0.00,WUHU216DAVISVP2,2013-05-22 08:56:00,
2013-05-22 04:01:00,65.0,62.6,29.72,South,172,3.0,10.0,92,0.00,,,0.00,WUHU216DAVISVP2,2013-05-22 09:01:00,
2013-05-22 04:06:00,65.0,62.3,29.72,SSW,209,6.0,10.0,91,0.00,,,0.00,WUHU216DAVISVP2,2013-05-22 09:06:00,
2013-05-22 04:11:00,65.0,62.3,29.72,SSW,203,4.0,7.0,91,0.00,,,0.00,WUHU216DAVISVP2,2013-05-22 09:11:00,
2013-05-22 04:16:00,64.9,62.5,29.72,SSW,207,3.0,7.0,92,0.00,,,0.00,WUHU216DAVISVP2,2013-05-22 09:16:00,
2013-05-22 04:21:00,64.9,62.5,29.72,SSW,203,4.0,6.0,92,0.00,,,0.00,WUHU216DAVISVP2,2013-05-22 09:21:00,
2013-05-22 04:26:00,64.8,62.4,29.72,SSW,201,3.0,7.0,92,0.00,,,0.00,WUHU216DAVISVP2,2013-05-22 09:26:00,
2013-05-22 04:31:00,64.7,62.3,29.72,SSW,196,3.0,7.0,92,0.00,,,0.00,WUHU216DAVISVP2,2013-05-22 09:31:00,
2013-05-22 04:36:00,64.7,62.3,29.72,South,176,1.0,5.0,92,0.00,,,0.00,WUHU216DAVISVP2,2013-05-22 09:36:00,
2013-05-22 04:41:00,64.6,62.2,29.72,SSE,166,2.0,3.0,92,0.00,,,0.00,WUHU216DAVISVP2,2013-05-22 09:41:00,
2013-05-22 04:46:00,64.5,62.1,29.72,South,190,3.0,5.0,92,0.00,,,0.00,WUHU216DAVISVP2,2013-05-22 09:46:00,
2013-05-22 04:51:00,64.4,62.0,29.72,South,188,1.0,5.0,92,0.00,,,0.00,WUHU216DAVISVP2,2013-05-22 09:51:00,
2013-05-22 04:56:00,64.2,61.8,29.71,SSE,164,0.0,4.0,92,0.00,,,0.00,WUHU216DAVISVP2,2013-05-22 09:56:00,
2013-05-22 05:01:00,64.1,62.0,29.71,SSW,195,0.0,3.0,93,0.00,,,0.00,WUHU216DAVISVP2,2013-05-22 10:01:00,
2013-05-22 05:06:00,64.0,61.9,29.71,SSE,148,0.0,4.0,93,0.00,,,0.00,WUHU216DAVISVP2,2013-05-22 10:06:00,
2013-05-22 05:11:00,64.0,61.9,29.71,South,185,2.0,4.0,93,0.00,,,0.00,WUHU216DAVISVP2,2013-05-22 10:11:00,
2013-05-22 05:16:00,64.0,61.6,29.71,South,189,3.0,4.0,92,0.00,,,0.00,WUHU216DAVISVP2,2013-05-22 10:16:00,
2013-05-22 05:21:00,63.9,61.5,29.70,SSW,212,3.0,4.0,92,0.00,,,0.00,WUHU216DAVISVP2,2013-05-22 10:21:00,
2013-05-22 05:26:00,63.7,61.6,29.70,SW,214,2.0,4.0,93,0.00,,,0.00,WUHU216DAVISVP2,2013-05-22 10:26:00,
2013-05-22 05:31:00,63.5,61.4,29.71,SSW,204,4.0,5.0,93,0.00,,,0.00,WUHU216DAVISVP2,2013-05-22 10:31:00,
2013-05-22 05:36:00,63.5,61.4,29.71,South,189,3.0,5.0,93,0.00,,,0.00,WUHU216DAVISVP2,2013-05-22 10:36:00,
2013-05-22 05:41:00,63.5,61.4,29.72,SSW,207,4.0,7.0,93,0.00,,,0.00,WUHU216DAVISVP2,2013-05-22 10:41:00,
2013-05-22 05:46:00,63.5,61.4,29.71,SW,215,4.0,7.0,93,0.00,,,0.00,WUHU216DAVISVP2,2013-05-22 10:46:00,
2013-05-22 05:51:00,63.4,61.3,29.71,SSW,198,7.0,7.0,93,0.00,,,0.00,WUHU216DAVISVP2,2013-05-22 10:51:00,
2013-05-22 05:56:00,63.5,61.4,29.71,SW,217,3.0,8.0,93,0.00,,,0.00,WUHU216DAVISVP2,2013-05-22 10:56:00,
2013-05-22 06:01:00,63.5,61.4,29.71,SW,224,5.0,8.0,93,0.00,,,0.00,WUHU216DAVISVP2,2013-05-22 11:01:00,
2013-05-22 06:06:00,63.5,61.4,29.71,South,179,3.0,8.0,93,0.00,,,0.00,WUHU216DAVISVP2,2013-05-22 11:06:00,
2013-05-22 06:11:00,63.6,61.2,29.71,SSW,197,5.0,8.0,92,0.00,,,0.00,WUHU216DAVISVP2,2013-05-22 11:11:00,
2013-05-22 06:16:00,63.7,61.3,29.72,South,186,5.0,8.0,92,0.00,,,0.00,WUHU216DAVISVP2,2013-05-22 11:16:00,
2013-05-22 06:21:00,63.9,61.5,29.72,SSW,201,4.0,9.0,92,0.00,,,0.00,WUHU216DAVISVP2,2013-05-22 11:21:00,
2013-05-22 06:26:00,64.0,61.6,29.73,SSW,206,4.0,9.0,92,0.00,,,0.00,WUHU216DAVISVP2,2013-05-22 11:26:00,
2013-05-22 06:31:00,64.0,61.6,29.73,South,188,7.0,11.0,92,0.00,,,0.00,WUHU216DAVISVP2,2013-05-22 11:31:00,
2013-05-22 06:36:00,64.1,61.4,29.72,South,172,5.0,12.0,91,0.00,,,0.00,WUHU216DAVISVP2,2013-05-22 11:36:00,
2013-05-22 06:41:00,64.3,61.6,29.73,SSE,159,10.0,12.0,91,0.00,,,0.00,WUHU216DAVISVP2,2013-05-22 11:41:00,
2013-05-22 06:46:00,64.5,61.5,29.73,SSW,211,6.0,12.0,90,0.00,,,0.00,WUHU216DAVISVP2,2013-05-22 11:46:00,
2013-05-22 06:51:00,64.5,61.5,29.73,SW,220,4.0,12.0,90,0.00,,,0.00,WUHU216DAVISVP2,2013-05-22 11:51:00,
2013-05-22 06:56:00,64.4,61.4,29.73,WSW,246,6.0,15.0,90,0.00,,,0.00,WUHU216DAVISVP2,2013-05-22 11:56:00,
2013-05-22 07:01:00,64.4,61.4,29.74,SSW,209,8.0,15.0,90,0.00,,,0.00,WUHU216DAVISVP2,2013-05-22 12:01:00,
2013-05-22 07:06:00,64.3,61.3,29.74,SW,225,9.0,16.0,90,0.00,,,0.00,WUHU216DAVISVP2,2013-05-22 12:06:00,
2013-05-22 07:11:00,64.3,61.3,29.74,SW,228,13.0,16.0,90,0.00,,,0.00,WUHU216DAVISVP2,2013-05-22 12:11:00,
2013-05-22 07:16:00,64.1,61.1,29.74,SW,227,10.0,15.0,90,0.00,,,0.00,WUHU216DAVISVP2,2013-05-22 12:16:00,
2013-05-22 07:21:00,64.0,61.3,29.74,SW,221,6.0,13.0,91,0.00,,,0.00,WUHU216DAVISVP2,2013-05-22 12:21:00,
2013-05-22 07:26:00,63.9,61.2,29.73,SW,215,7.0,11.0,91,0.00,,,0.00,WUHU216DAVISVP2,2013-05-22 12:26:00,
2013-05-22 07:31:00,63.9,61.2,29.73,South,187,5.0,11.0,91,0.00,,,0.00,WUHU216DAVISVP2,2013-05-22 12:31:00,
2013-05-22 07:36:00,64.0,61.3,29.73,SSW,193,8.0,11.0,91,0.00,,,0.00,WUHU216DAVISVP2,2013-05-22 12:36:00,
2013-05-22 07:41:00,64.2,61.5,29.73,South,191,7.0,11.0,91,0.00,,,0.00,WUHU216DAVISVP2,2013-05-22 12:41:00,
2013-05-22 07:46:00,64.5,61.5,29.74,SSW,197,10.0,12.0,90,0.00,,,0.00,WUHU216DAVISVP2,2013-05-22 12:46:00,
2013-05-22 07:51:00,64.8,61.8,29.74,SSW,198,5.0,12.0,90,0.00,,,0.00,WUHU216DAVISVP2,2013-05-22 12:51:00,
2013-05-22 07:56:00,64.9,61.9,29.74,SSW,193,6.0,12.0,90,0.00,,,0.00,WUHU216DAVISVP2,2013-05-22 12:56:00,
2013-05-22 08:01:00,64.9,61.6,29.75,SW,214,6.0,13.0,89,0.00,,,0.00,WUHU216DAVISVP2,2013-05-22 13:01:00,
2013-05-22 08:06:00,65.0,61.7,29.74,SW,217,8.0,13.0,89,0.00,,,0.00,WUHU216DAVISVP2,2013-05-22 13:06:00,
2013-05-22 08:11:00,65.0,62.0,29.75,SSW,200,6.0,13.0,90,0.00,,,0.00,WUHU216DAVISVP2,2013-05-22 13:11:00,
2013-05-22 08:16:00,65.3,62.3,29.75,SW,218,7.0,12.0,90,0.00,,,0.00,WUHU216DAVISVP2,2013-05-22 13:16:00,
2013-05-22 08:21:00,65.7,62.7,29.75,SW,231,7.0,11.0,90,0.00,,,0.00,WUHU216DAVISVP2,2013-05-22 13:21:00,
2013-05-22 08:26:00,65.9,62.2,29.75,SSW,200,4.0,11.0,88,0.00,,,0.00,WUHU216DAVISVP2,2013-05-22 13:26:00,
2013-05-22 08:30:00,66.4,62.4,29.75,SW,220,13.0,13.0,87,0.00,,,0.00,WUHU216DAVISVP2,2013-05-22 13:30:00,
2013-05-22 08:35:00,66.8,62.8,29.75,SSW,207,8.0,13.0,87,0.00,,,0.00,WUHU216DAVISVP2,2013-05-22 13:35:00,
2013-05-22 08:40:00,67.4,63.4,29.75,SSW,203,5.0,11.0,87,0.00,,,0.00,WUHU216DAVISVP2,2013-05-22 13:40:00,
2013-05-22 08:45:00,67.7,63.4,29.75,South,187,9.0,12.0,86,0.00,,,0.00,WUHU216DAVISVP2,2013-05-22 13:45:00,
2013-05-22 08:50:00,67.4,62.7,29.75,SW,217,10.0,16.0,85,0.00,,,0.00,WUHU216DAVISVP2,2013-05-22 13:50:00,
2013-05-22 08:55:00,67.6,62.9,29.75,SW,227,10.0,16.0,85,0.00,,,0.00,WUHU216DAVISVP2,2013-05-22 13:55:00,
2013-05-22 09:00:00,67.9,62.9,29.75,SW,214,7.0,12.0,84,0.00,,,0.00,WUHU216DAVISVP2,2013-05-22 14:00:00,
2013-05-22 09:05:00,67.8,62.4,29.75,SW,229,8.0,13.0,83,0.00,,,0.00,WUHU216DAVISVP2,2013-05-22 14:05:00,
2013-05-22 09:10:00,67.7,62.3,29.75,WSW,240,7.0,13.0,83,0.00,,,0.00,WUHU216DAVISVP2,2013-05-22 14:10:00,
2013-05-22 09:15:00,67.8,62.4,29.75,SW,224,10.0,13.0,83,0.00,,,0.00,WUHU216DAVISVP2,2013-05-22 14:15:00,
2013-05-22 09:20:00,68.5,63.1,29.75,WSW,240,9.0,14.0,83,0.00,,,0.00,WUHU216DAVISVP2,2013-05-22 14:20:00,
2013-05-22 09:25:00,68.8,62.8,29.76,SSW,208,12.0,15.0,81,0.00,,,0.00,WUHU216DAVISVP2,2013-05-22 14:25:00,
2013-05-22 09:30:00,68.8,63.1,29.76,South,171,7.0,15.0,82,0.00,,,0.00,WUHU216DAVISVP2,2013-05-22 14:30:00,
2013-05-22 09:35:00,69.2,63.5,29.75,SW,218,11.0,14.0,82,0.00,,,0.00,WUHU216DAVISVP2,2013-05-22 14:35:00,
2013-05-22 09:40:00,69.3,63.6,29.75,SSW,209,4.0,12.0,82,0.00,,,0.00,WUHU216DAVISVP2,2013-05-22 14:40:00,
2013-05-22 09:45:00,69.4,63.0,29.75,South,185,5.0,12.0,80,0.00,,,0.00,WUHU216DAVISVP2,2013-05-22 14:45:00,
2013-05-22 09:50:00,69.6,63.2,29.76,SW,215,8.0,12.0,80,0.00,,,0.00,WUHU216DAVISVP2,2013-05-22 14:50:00,
2013-05-22 09:55:00,69.8,63.8,29.76,WSW,243,6.0,12.0,81,0.00,,,0.00,WUHU216DAVISVP2,2013-05-22 14:55:00,
2013-05-22 10:00:00,69.7,63.7,29.76,SW,217,12.0,12.0,81,0.00,,,0.00,WUHU216DAVISVP2,2013-05-22 15:00:00,
2013-05-22 10:05:00,69.4,63.7,29.77,WSW,243,6.0,13.0,82,0.00,,,0.00,WUHU216DAVISVP2,2013-05-22 15:05:00,
2013-05-22 10:10:00,69.6,63.6,29.77,SSW,202,7.0,13.0,81,0.00,,,0.00,WUHU216DAVISVP2,2013-05-22 15:10:00,
2013-05-22 10:15:00,69.3,63.3,29.77,SW,226,8.0,10.0,81,0.00,,,0.00,WUHU216DAVISVP2,2013-05-22 15:15:00,
2013-05-22 10:20:00,69.2,63.2,29.77,SSW,199,8.0,12.0,81,0.00,,,0.00,WUHU216DAVISVP2,2013-05-22 15:20:00,
2013-05-22 10:25:00,69.7,63.7,29.77,SW,218,8.0,12.0,81,0.00,,,0.00,WUHU216DAVISVP2,2013-05-22 15:25:00,
2013-05-22 10:30:00,70.4,64.4,29.77,SSW,207,8.0,11.0,81,0.00,,,0.00,WUHU216DAVISVP2,2013-05-22 15:30:00,
2013-05-22 10:35:00,70.6,63.9,29.77,SSW,205,8.0,15.0,79,0.00,,,0.00,WUHU216DAVISVP2,2013-05-22 15:35:00,
2013-05-22 10:40:00,70.4,63.7,29.77,SW,217,5.0,15.0,79,0.00,,,0.00,WUHU216DAVISVP2,2013-05-22 15:40:00,
2013-05-22 10:45:00,70.9,64.5,29.77,WSW,238,3.0,14.0,80,0.00,,,0.00,WUHU216DAVISVP2,2013-05-22 15:45:00,
2013-05-22 10:50:00,71.2,64.5,29.77,SW,229,6.0,10.0,79,0.00,,,0.00,WUHU216DAVISVP2,2013-05-22 15:50:00,
2013-05-22 10:55:00,70.8,63.7,29.77,SSW,208,6.0,12.0,78,0.00,,,0.00,WUHU216DAVISVP2,2013-05-22 15:55:00,
2013-05-22 11:00:00,71.2,63.7,29.77,SSW,203,10.0,15.0,77,0.00,,,0.00,WUHU216DAVISVP2,2013-05-22 16:00:00,
2013-05-22 11:05:00,71.8,64.0,29.78,SSW,199,6.0,15.0,76,0.00,,,0.00,WUHU216DAVISVP2,2013-05-22 16:05:00,
2013-05-22 11:10:00,71.7,63.5,29.78,SW,226,8.0,14.0,75,0.00,,,0.00,WUHU216DAVISVP2,2013-05-22 16:10:00,
2013-05-22 11:15:00,72.0,63.4,29.78,SSW,192,6.0,14.0,74,0.00,,,0.00,WUHU216DAVISVP2,2013-05-22 16:15:00,
2013-05-22 11:20:00,72.2,63.6,29.78,SW,236,10.0,14.0,74,0.00,,,0.00,WUHU216DAVISVP2,2013-05-22 16:20:00,
2013-05-22 11:25:00,72.7,62.9,29.78,SSW,206,8.0,14.0,71,0.00,,,0.00,WUHU216DAVISVP2,2013-05-22 16:25:00,
2013-05-22 11:30:00,72.8,63.8,29.78,SSW,200,5.0,13.0,73,0.00,,,0.00,WUHU216DAVISVP2,2013-05-22 16:30:00,
2013-05-22 11:35:00,72.9,64.1,29.78,SSW,200,5.0,13.0,74,0.00,,,0.00,WUHU216DAVISVP2,2013-05-22 16:35:00,
2013-05-22 11:40:00,73.3,65.0,29.78,SSW,201,1.0,11.0,75,0.00,,,0.00,WUHU216DAVISVP2,2013-05-22 16:40:00,
2013-05-22 11:45:00,73.4,64.0,29.78,SSW,212,8.0,11.0,72,0.00,,,0.00,WUHU216DAVISVP2,2013-05-22 16:45:00,
2013-05-22 11:50:00,73.5,63.1,29.78,SW,221,6.0,11.0,70,0.00,,,0.00,WUHU216DAVISVP2,2013-05-22 16:50:00,
2013-05-22 11:55:00,73.7,63.3,29.78,SSW,209,5.0,12.0,70,0.00,,,0.00,WUHU216DAVISVP2,2013-05-22 16:55:00,
2013-05-22 12:00:00,73.4,62.6,29.78,SW,226,5.0,12.0,69,0.00,,,0.00,WUHU216DAVISVP2,2013-05-22 17:00:00,
2013-05-22 12:05:00,74.0,61.9,29.78,SW,231,6.0,12.0,66,0.00,,,0.00,WUHU216DAVISVP2,2013-05-22 17:05:00,
2013-05-22 12:10:00,74.1,63.5,29.78,SSW,212,5.0,12.0,69,0.00,,,0.00,WUHU216DAVISVP2,2013-05-22 17:10:00,
2013-05-22 12:15:00,74.1,61.8,29.78,SSW,196,9.0,12.0,65,0.00,,,0.00,WUHU216DAVISVP2,2013-05-22 17:15:00,
2013-05-22 12:20:00,74.5,60.4,29.78,WSW,243,12.0,12.0,61,0.00,,,0.00,WUHU216DAVISVP2,2013-05-22 17:20:00,
2013-05-22 12:25:00,74.6,61.4,29.78,North,355,1.0,14.0,63,0.00,,,0.00,WUHU216DAVISVP2,2013-05-22 17:25:00,
2013-05-22 12:30:00,74.9,63.4,29.78,WSW,249,9.0,14.0,67,0.00,,,0.00,WUHU216DAVISVP2,2013-05-22 17:30:00,
2013-05-22 12:35:00,75.0,61.3,29.78,SW,233,8.0,12.0,62,0.00,,,0.00,WUHU216DAVISVP2,2013-05-22 17:35:00,
2013-05-22 12:40:00,75.3,61.6,29.78,SSW,206,6.0,12.0,62,0.00,,,0.00,WUHU216DAVISVP2,2013-05-22 17:40:00,
2013-05-22 12:45:00,75.5,63.1,29.78,WSW,237,8.0,12.0,65,0.00,,,0.00,WUHU216DAVISVP2,2013-05-22 17:45:00,
2013-05-22 12:50:00,75.3,62.5,29.77,SW,220,4.0,11.0,64,0.00,,,0.00,WUHU216DAVISVP2,2013-05-22 17:50:00,
2013-05-22 12:55:00,74.8,62.0,29.77,West,259,7.0,10.0,64,0.00,,,0.00,WUHU216DAVISVP2,2013-05-22 17:55:00,
2013-05-22 13:00:00,75.2,61.5,29.77,SSW,200,5.0,12.0,62,0.00,,,0.00,WUHU216DAVISVP2,2013-05-22 18:00:00,
2013-05-22 13:05:00,75.4,62.6,29.77,SSW,210,7.0,12.0,64,0.00,,,0.00,WUHU216DAVISVP2,2013-05-22 18:05:00,
2013-05-22 13:10:00,75.6,62.3,29.77,South,181,5.0,11.0,63,0.00,,,0.00,WUHU216DAVISVP2,2013-05-22 18:10:00,
2013-05-22 13:15:00,76.2,61.5,29.77,SSW,197,6.0,12.0,60,0.00,,,0.00,WUHU216DAVISVP2,2013-05-22 18:15:00,
2013-05-22 13:20:00,76.4,61.2,29.77,West,269,4.0,12.0,59,0.00,,,0.00,WUHU216DAVISVP2,2013-05-22 18:20:00,
2013-05-22 13:25:00,76.3,61.6,29.77,WSW,242,7.0,12.0,60,0.00,,,0.00,WUHU216DAVISVP2,2013-05-22 18:25:00,
2013-05-22 13:30:00,75.5,61.3,29.77,SSW,197,7.0,11.0,61,0.00,,,0.00,WUHU216DAVISVP2,2013-05-22 18:30:00,
2013-05-22 13:35:00,74.8,62.5,29.77,West,275,4.0,11.0,65,0.00,,,0.00,WUHU216DAVISVP2,2013-05-22 18:35:00,
2013-05-22 13:40:00,74.4,60.7,29.77,SW,229,5.0,10.0,62,0.00,,,0.00,WUHU216DAVISVP2,2013-05-22 18:40:00,
2013-05-22 13:45:00,74.0,60.4,29.77,SW,215,5.0,8.0,62,0.00,,,0.00,WUHU216DAVISVP2,2013-05-22 18:45:00,
2013-05-22 13:50:00,74.0,60.8,29.77,SSW,208,5.0,8.0,63,0.00,,,0.00,WUHU216DAVISVP2,2013-05-22 18:50:00,
2013-05-22 13:55:00,74.0,60.8,29.77,South,176,10.0,11.0,63,0.00,,,0.00,WUHU216DAVISVP2,2013-05-22 18:55:00,
2013-05-22 14:00:00,74.0,60.8,29.77,WSW,257,4.0,11.0,63,0.00,,,0.00,WUHU216DAVISVP2,2013-05-22 19:00:00,
2013-05-22 14:05:00,73.9,61.6,29.77,SW,220,5.0,12.0,65,0.00,,,0.00,WUHU216DAVISVP2,2013-05-22 19:05:00,
2013-05-22 14:10:00,74.1,62.2,29.77,WSW,245,7.0,10.0,66,0.00,,,0.00,WUHU216DAVISVP2,2013-05-22 19:10:00,
2013-05-22 14:15:00,74.1,61.8,29.77,SSW,209,7.0,10.0,65,0.00,,,0.00,WUHU216DAVISVP2,2013-05-22 19:15:00,
2013-05-22 14:20:00,74.4,61.6,29.77,SSW,202,6.0,11.0,64,0.00,,,0.00,WUHU216DAVISVP2,2013-05-22 19:20:00,
2013-05-22 14:25:00,75.1,64.0,29.77,SSW,207,5.0,11.0,68,0.00,,,0.00,WUHU216DAVISVP2,2013-05-22 19:25:00,
2013-05-22 14:30:00,75.8,61.1,29.77,SSW,198,6.0,15.0,60,0.00,,,0.00,WUHU216DAVISVP2,2013-05-22 19:30:00,
2013-05-22 14:35:00,76.6,62.4,29.76,SSW,209,5.0,15.0,61,0.00,,,0.00,WUHU216DAVISVP2,2013-05-22 19:35:00,
2013-05-22 14:40:00,76.6,61.9,29.76,South,185,6.0,8.0,60,0.00,,,0.00,WUHU216DAVISVP2,2013-05-22 19:40:00,
2013-05-22 14:45:00,75.9,60.7,29.76,SSW,211,6.0,14.0,59,0.00,,,0.00,WUHU216DAVISVP2,2013-05-22 19:45:00,
2013-05-22 14:50:00,75.0,60.8,29.76,SW,221,7.0,14.0,61,0.00,,,0.00,WUHU216DAVISVP2,2013-05-22 19:50:00,
2013-05-22 14:55:00,74.4,60.7,29.76,SSW,202,4.0,13.0,62,0.00,,,0.00,WUHU216DAVISVP2,2013-05-22 19:55:00,
2013-05-22 15:00:00,74.0,60.8,29.76,SW,229,8.0,13.0,63,0.00,,,0.00,WUHU216DAVISVP2,2013-05-22 20:00:00,
2013-05-22 15:05:00,73.7,61.4,29.76,SW,228,7.0,12.0,65,0.00,,,0.00,WUHU216DAVISVP2,2013-05-22 20:05:00,
2013-05-22 15:10:00,73.5,61.7,29.76,SSW,211,7.0,12.0,66,0.00,,,0.00,WUHU216DAVISVP2,2013-05-22 20:10:00,
2013-05-22 15:15:00,73.4,61.6,29.76,SW,221,6.0,11.0,66,0.00,,,0.00,WUHU216DAVISVP2,2013-05-22 20:15:00,
2013-05-22 15:20:00,73.3,61.9,29.76,SSW,207,8.0,12.0,67,0.00,,,0.00,WUHU216DAVISVP2,2013-05-22 20:20:00,
2013-05-22 15:25:00,73.3,61.5,29.77,SSW,202,7.0,12.0,66,0.00,,,0.00,WUHU216DAVISVP2,2013-05-22 20:25:00,
2013-05-22 15:30:00,73.4,61.6,29.77,SW,230,11.0,13.0,66,0.00,,,0.00,WUHU216DAVISVP2,2013-05-22 20:30:00,
2013-05-22 15:35:00,73.1,61.3,29.77,South,173,13.0,15.0,66,0.00,,,0.00,WUHU216DAVISVP2,2013-05-22 20:35:00,
2013-05-22 15:40:00,73.6,61.7,29.77,SSW,204,6.0,15.0,66,0.00,,,0.00,WUHU216DAVISVP2,2013-05-22 20:40:00,
2013-05-22 15:45:00,74.3,62.0,29.76,SSW,204,13.0,13.0,65,0.00,,,0.00,WUHU216DAVISVP2,2013-05-22 20:45:00,
2013-05-22 15:50:00,74.8,63.7,29.76,SSW,205,5.0,13.0,68,0.00,,,0.00,WUHU216DAVISVP2,2013-05-22 20:50:00,
2013-05-22 15:55:00,75.1,61.9,29.76,SSW,194,8.0,12.0,63,0.00,,,0.00,WUHU216DAVISVP2,2013-05-22 20:55:00,
2013-05-22 16:00:00,75.1,61.9,29.76,South,187,5.0,13.0,63,0.00,,,0.00,WUHU216DAVISVP2,2013-05-22 21:00:00,
2013-05-22 16:05:00,75.6,62.8,29.76,SW,223,8.0,13.0,64,0.00,,,0.00,WUHU216DAVISVP2,2013-05-22 21:05:00,
2013-05-22 16:10:00,75.8,63.0,29.76,SSW,206,7.0,9.0,64,0.00,,,0.00,WUHU216DAVISVP2,2013-05-22 21:10:00,
2013-05-22 16:15:00,76.3,63.0,29.75,SW,222,6.0,9.0,63,0.00,,,0.00,WUHU216DAVISVP2,2013-05-22 21:15:00,
2013-05-22 16:20:00,76.1,62.6,29.75,SSW,199,5.0,11.0,63,0.00,,,0.00,WUHU216DAVISVP2,2013-05-22 21:20:00,
2013-05-22 16:25:00,76.1,63.0,29.75,South,186,7.0,13.0,64,0.00,,,0.00,WUHU216DAVISVP2,2013-05-22 21:25:00,
2013-05-22 16:30:00,76.0,62.9,29.75,SSW,206,5.0,13.0,64,0.00,,,0.00,WUHU216DAVISVP2,2013-05-22 21:30:00,
2013-05-22 16:35:00,75.1,62.1,29.75,SW,221,6.0,12.0,64,0.00,,,0.00,WUHU216DAVISVP2,2013-05-22 21:35:00,
2013-05-22 16:40:00,74.4,61.0,29.75,SW,217,5.0,12.0,63,0.00,,,0.00,WUHU216DAVISVP2,2013-05-22 21:40:00,
2013-05-22 16:45:00,74.0,62.3,29.75,South,191,4.0,9.0,67,0.00,,,0.00,WUHU216DAVISVP2,2013-05-22 21:45:00,
2013-05-22 16:50:00,73.7,62.5,29.75,SW,214,5.0,9.0,68,0.00,,,0.00,WUHU216DAVISVP2,2013-05-22 21:50:00,
2013-05-22 16:55:00,73.5,62.7,29.75,SW,216,4.0,7.0,69,0.00,,,0.00,WUHU216DAVISVP2,2013-05-22 21:55:00,
2013-05-22 17:00:00,73.5,62.3,29.75,SSW,199,4.0,11.0,68,0.00,,,0.00,WUHU216DAVISVP2,2013-05-22 22:00:00,
2013-05-22 17:05:00,73.8,63.2,29.75,SSW,209,4.0,11.0,69,0.00,,,0.00,WUHU216DAVISVP2,2013-05-22 22:05:00,
2013-05-22 17:10:00,75.1,62.1,29.75,SW,233,7.0,10.0,64,0.00,,,0.00,WUHU216DAVISVP2,2013-05-22 22:10:00,
2013-05-22 17:15:00,76.2,62.4,29.75,SSW,198,4.0,10.0,62,0.00,,,0.00,WUHU216DAVISVP2,2013-05-22 22:15:00,
2013-05-22 17:20:00,76.7,62.5,29.75,WSW,237,9.0,10.0,61,0.00,,,0.00,WUHU216DAVISVP2,2013-05-22 22:20:00,
2013-05-22 17:25:00,76.3,59.6,29.75,SSW,206,6.0,10.0,56,0.00,,,0.00,WUHU216DAVISVP2,2013-05-22 22:25:00,
2013-05-22 17:30:00,76.0,61.3,29.75,WSW,239,5.0,10.0,60,0.00,,,0.00,WUHU216DAVISVP2,2013-05-22 22:30:00,
2013-05-22 17:35:00,76.7,61.5,29.75,SW,219,5.0,11.0,59,0.00,,,0.00,WUHU216DAVISVP2,2013-05-22 22:35:00,
2013-05-22 17:40:00,77.0,61.3,29.75,SSW,192,6.0,15.0,58,0.00,,,0.00,WUHU216DAVISVP2,2013-05-22 22:40:00,
2013-05-22 17:45:00,76.9,60.7,29.75,WSW,254,5.0,15.0,57,0.00,,,0.00,WUHU216DAVISVP2,2013-05-22 22:45:00,
2013-05-22 17:50:00,76.8,59.6,29.75,SSE,168,4.0,12.0,55,0.00,,,0.00,WUHU216DAVISVP2,2013-05-22 22:50:00,
2013-05-22 17:55:00,76.9,59.7,29.75,West,270,12.0,12.0,55,0.00,,,0.00,WUHU216DAVISVP2,2013-05-22 22:55:00,
2013-05-22 18:00:00,76.9,60.2,29.75,SSW,213,2.0,12.0,56,0.00,,,0.00,WUHU216DAVISVP2,2013-05-22 23:00:00,
2013-05-22 18:05:00,76.7,59.5,29.75,SW,224,5.0,10.0,55,0.00,,,0.00,WUHU216DAVISVP2,2013-05-22 23:05:00,
2013-05-22 18:10:00,76.6,60.4,29.75,WSW,243,0.0,9.0,57,0.00,,,0.00,WUHU216DAVISVP2,2013-05-22 23:10:00,
2013-05-22 18:15:00,76.6,59.4,29.75,NNW,328,1.0,9.0,55,0.00,,,0.00,WUHU216DAVISVP2,2013-05-22 23:15:00,
2013-05-22 18:20:00,76.7,60.0,29.75,SSW,210,1.0,9.0,56,0.00,,,0.00,WUHU216DAVISVP2,2013-05-22 23:20:00,
2013-05-22 18:25:00,76.5,59.8,29.75,West,269,5.0,11.0,56,0.00,,,0.00,WUHU216DAVISVP2,2013-05-22 23:25:00,
2013-05-22 18:30:00,76.5,60.3,29.75,WSW,251,6.0,11.0,57,0.00,,,0.00,WUHU216DAVISVP2,2013-05-22 23:30:00,
2013-05-22 18:35:00,76.4,59.5,29.75,WSW,242,3.0,8.0,56,0.00,,,0.00,WUHU216DAVISVP2,2013-05-22 23:35:00,
2013-05-22 18:40:00,76.3,59.9,29.75,WSW,245,5.0,8.0,57,0.00,,,0.00,WUHU216DAVISVP2,2013-05-22 23:40:00,
2013-05-22 18:45:00,75.6,59.8,29.75,WNW,288,2.0,5.0,58,0.00,,,0.00,WUHU216DAVISVP2,2013-05-22 23:45:00,
2013-05-22 18:50:00,75.0,59.7,29.75,East,97,1.0,5.0,59,0.00,,,0.00,WUHU216DAVISVP2,2013-05-22 23:50:00,
2013-05-22 18:55:00,74.6,59.8,29.76,WSW,252,2.0,5.0,60,0.00,,,0.00,WUHU216DAVISVP2,2013-05-22 23:55:00,
2013-05-22 19:00:00,74.1,59.3,29.76,WSW,244,0.0,6.0,60,0.00,,,0.00,WUHU216DAVISVP2,2013-05-23 00:00:00,
2013-05-22 19:05:00,73.8,59.5,29.76,WNW,297,6.0,6.0,61,0.00,,,0.00,WUHU216DAVISVP2,2013-05-23 00:05:00,
2013-05-22 19:10:00,73.5,59.7,29.76,West,260,1.0,6.0,62,0.00,,,0.00,WUHU216DAVISVP2,2013-05-23 00:10:00,
2013-05-22 19:15:00,73.5,60.6,29.76,WNW,288,2.0,5.0,64,0.00,,,0.00,WUHU216DAVISVP2,2013-05-23 00:15:00,
2013-05-22 19:20:00,73.2,60.7,29.76,West,268,2.0,5.0,65,0.00,,,0.00,WUHU216DAVISVP2,2013-05-23 00:20:00,
2013-05-22 19:25:00,73.2,58.9,29.77,WNW,289,4.0,11.0,61,0.00,,,0.00,WUHU216DAVISVP2,2013-05-23 00:25:00,
2013-05-22 19:30:00,73.3,59.0,29.77,West,271,4.0,11.0,61,0.00,,,0.00,WUHU216DAVISVP2,2013-05-23 00:30:00,
2013-05-22 19:35:00,73.5,59.2,29.77,WSW,238,1.0,6.0,61,0.00,,,0.00,WUHU216DAVISVP2,2013-05-23 00:35:00,
2013-05-22 19:40:00,73.5,59.4,29.77,WSW,250,2.0,6.0,61,0.00,,,0.00,WUHU216DAVISVP2,2013-05-23 00:40:00,
2013-05-22 19:45:00,73.1,60.0,29.77,WNW,286,2.0,4.0,63,0.00,,,0.00,WUHU216DAVISVP2,2013-05-23 00:45:00,
2013-05-22 19:50:00,72.7,59.6,29.77,WSW,245,3.0,4.0,63,0.00,,,0.00,WUHU216DAVISVP2,2013-05-23 00:50:00,
2013-05-22 19:55:00,72.4,59.7,29.78,WSW,243,2.0,5.0,64,0.00,,,0.00,WUHU216DAVISVP2,2013-05-23 00:55:00,
2013-05-22 20:00:00,72.1,60.3,29.78,WNW,294,1.0,5.0,66,0.00,,,0.00,WUHU216DAVISVP2,2013-05-23 01:00:00,
2013-05-22 20:05:00,71.8,60.0,29.78,West,259,1.0,4.0,66,0.00,,,0.00,WUHU216DAVISVP2,2013-05-23 01:05:00,
2013-05-22 20:10:00,71.6,60.7,29.78,WNW,301,0.0,4.0,68,0.00,,,0.00,WUHU216DAVISVP2,2013-05-23 01:10:00,
2013-05-22 20:15:00,71.1,60.6,29.78,West,269,2.0,4.0,69,0.00,,,0.00,WUHU216DAVISVP2,2013-05-23 01:15:00,
2013-05-22 20:20:00,70.8,60.9,29.78,NW,304,2.0,3.0,71,0.00,,,0.00,WUHU216DAVISVP2,2013-05-23 01:20:00,
2013-05-22 20:25:00,70.5,60.6,29.78,West,273,1.0,2.0,71,0.00,,,0.00,WUHU216DAVISVP2,2013-05-23 01:25:00,
2013-05-22 20:30:00,70.1,60.7,29.79,West,273,1.0,2.0,72,0.00,,,0.00,WUHU216DAVISVP2,2013-05-23 01:30:00,
2013-05-22 20:35:00,69.9,60.5,29.79,West,261,1.0,3.0,72,0.00,,,0.00,WUHU216DAVISVP2,2013-05-23 01:35:00,
2013-05-22 20:40:00,69.8,60.4,29.79,WNW,297,1.0,3.0,72,0.00,,,0.00,WUHU216DAVISVP2,2013-05-23 01:40:00,
2013-05-22 20:45:00,69.6,60.3,29.79,NW,323,0.0,3.0,72,0.00,,,0.00,WUHU216DAVISVP2,2013-05-23 01:45:00,
2013-05-22 20:50:00,69.6,60.2,29.79,NW,323,1.0,3.0,72,0.00,,,0.00,WUHU216DAVISVP2,2013-05-23 01:50:00,
2013-05-22 20:55:00,69.5,60.2,29.79,NW,314,2.0,3.0,72,0.00,,,0.00,WUHU216DAVISVP2,2013-05-23 01:55:00,
2013-05-22 21:00:00,69.2,59.9,29.80,NNW,327,3.0,4.0,72,0.00,,,0.00,WUHU216DAVISVP2,2013-05-23 02:00:00,
2013-05-22 21:05:00,68.9,60.0,29.80,NNW,345,3.0,4.0,73,0.00,,,0.00,WUHU216DAVISVP2,2013-05-23 02:05:00,
2013-05-22 21:10:00,68.7,59.8,29.80,WNW,298,1.0,3.0,73,0.00,,,0.00,WUHU216DAVISVP2,2013-05-23 02:10:00,
2013-05-22 21:15:00,68.5,59.3,29.80,NNW,333,4.0,5.0,72,0.00,,,0.00,WUHU216DAVISVP2,2013-05-23 02:15:00,
2013-05-22 21:20:00,68.4,59.2,29.81,NW,318,2.0,5.0,72,0.00,,,0.00,WUHU216DAVISVP2,2013-05-23 02:20:00,
2013-05-22 21:25:00,68.3,59.1,29.81,NW,316,3.0,4.0,72,0.00,,,0.00,WUHU216DAVISVP2,2013-05-23 02:25:00,
2013-05-22 21:30:00,68.2,59.0,29.81,NW,314,1.0,4.0,72,0.00,,,0.00,WUHU216DAVISVP2,2013-05-23 02:30:00,
2013-05-22 21:35:00,68.0,59.2,29.82,NW,325,1.0,4.0,73,0.00,,,0.00,WUHU216DAVISVP2,2013-05-23 02:35:00,
2013-05-22 21:40:00,67.8,59.0,29.82,NW,310,1.0,4.0,73,0.00,,,0.00,WUHU216DAVISVP2,2013-05-23 02:40:00,
2013-05-22 21:45:00,67.6,59.2,29.82,NW,320,1.0,3.0,74,0.00,,,0.00,WUHU216DAVISVP2,2013-05-23 02:45:00,
2013-05-22 21:50:00,67.3,58.9,29.82,NW,324,1.0,2.0,74,0.00,,,0.00,WUHU216DAVISVP2,2013-05-23 02:50:00,
2013-05-22 21:55:00,67.0,58.6,29.82,WNW,286,1.0,2.0,74,0.00,,,0.00,WUHU216DAVISVP2,2013-05-23 02:55:00,
2013-05-22 22:00:00,66.8,58.7,29.83,NNW,342,3.0,3.0,75,0.00,,,0.00,WUHU216DAVISVP2,2013-05-23 03:00:00,
2013-05-22 22:05:00,66.8,58.7,29.83,NNW,329,1.0,4.0,75,0.00,,,0.00,WUHU216DAVISVP2,2013-05-23 03:05:00,
2013-05-22 22:10:00,66.7,58.6,29.83,WNW,292,1.0,4.0,75,0.00,,,0.00,WUHU216DAVISVP2,2013-05-23 03:10:00,
2013-05-22 22:15:00,66.5,58.8,29.83,West,280,2.0,3.0,76,0.00,,,0.00,WUHU216DAVISVP2,2013-05-23 03:15:00,
2013-05-22 22:20:00,66.3,58.6,29.83,West,280,0.0,4.0,76,0.00,,,0.00,WUHU216DAVISVP2,2013-05-23 03:20:00,
2013-05-22 22:25:00,66.0,58.7,29.83,NW,309,2.0,4.0,77,0.00,,,0.00,WUHU216DAVISVP2,2013-05-23 03:25:00,
2013-05-22 22:30:00,66.0,58.7,29.83,West,278,1.0,3.0,77,0.00,,,0.00,WUHU216DAVISVP2,2013-05-23 03:30:00,
2013-05-22 22:35:00,65.9,58.6,29.84,NNW,330,1.0,3.0,77,0.00,,,0.00,WUHU216DAVISVP2,2013-05-23 03:35:00,
2013-05-22 22:40:00,65.8,58.5,29.84,NW,314,3.0,3.0,77,0.00,,,0.00,WUHU216DAVISVP2,2013-05-23 03:40:00,
2013-05-22 22:45:00,65.7,58.4,29.84,NW,323,3.0,3.0,77,0.00,,,0.00,WUHU216DAVISVP2,2013-05-23 03:45:00,
2013-05-22 22:50:00,65.6,57.9,29.84,NW,319,2.0,5.0,76,0.00,,,0.00,WUHU216DAVISVP2,2013-05-23 03:50:00,
2013-05-22 22:55:00,65.6,57.9,29.84,NNW,331,2.0,5.0,76,0.00,,,0.00,WUHU216DAVISVP2,2013-05-23 03:55:00,
2013-05-22 23:00:00,65.3,58.0,29.84,WNW,287,1.0,5.0,77,0.00,,,0.00,WUHU216DAVISVP2,2013-05-23 04:00:00,
2013-05-22 23:01:00,65.2,57.9,29.84,WNW,287,1.0,4.0,77,0.00,,,0.00,WUHU216DAVISVP2,2013-05-23 04:01:00,
2013-05-22 23:06:00,64.9,58.0,29.84,NW,322,2.0,3.0,78,0.00,,,0.00,WUHU216DAVISVP2,2013-05-23 04:06:00,
2013-05-22 23:11:00,64.8,57.9,29.84,NW,325,1.0,4.0,78,0.00,,,0.00,WUHU216DAVISVP2,2013-05-23 04:11:00,
2013-05-22 23:16:00,64.9,58.0,29.85,NNW,342,2.0,5.0,78,0.00,,,0.00,WUHU216DAVISVP2,2013-05-23 04:16:00,
2013-05-22 23:21:00,64.8,57.9,29.85,NW,320,1.0,6.0,78,0.00,,,0.00,WUHU216DAVISVP2,2013-05-23 04:21:00,
2013-05-22 23:26:00,64.6,57.7,29.85,NNW,331,4.0,6.0,78,0.00,,,0.00,WUHU216DAVISVP2,2013-05-23 04:26:00,
2013-05-22 23:31:00,64.5,57.6,29.85,NNW,346,4.0,6.0,78,0.00,,,0.00,WUHU216DAVISVP2,2013-05-23 04:31:00,
2013-05-22 23:36:00,64.3,57.4,29.85,NW,321,3.0,6.0,78,0.00,,,0.00,WUHU216DAVISVP2,2013-05-23 04:36:00,
2013-05-22 23:41:00,64.0,57.4,29.85,NW,323,1.0,5.0,79,0.00,,,0.00,WUHU216DAVISVP2,2013-05-23 04:41:00,
2013-05-22 23:46:00,63.8,57.2,29.85,WNW,296,2.0,3.0,79,0.00,,,0.00,WUHU216DAVISVP2,2013-05-23 04:46:00,
2013-05-22 23:51:00,63.6,57.0,29.85,NW,322,2.0,3.0,79,0.00,,,0.00,WUHU216DAVISVP2,2013-05-23 04:51:00,
2013-05-22 23:56:00,63.5,56.9,29.86,West,278,2.0,4.0,79,0.00,,,0.00,WUHU216DAVISVP2,2013-05-23 04:56:00,